CZ-4 DEB, 26155

Orbit data source: Space-Track

CZ-4 DEB, 26155 is space debris in SSO originally from a launch on Thu, 14 Oct 1999 UTC launched from the Taiyaun Space Center, China (TSC). Debris objects in space refer to the collection of defunct objects orbiting the Earth. Examples of debris include non-operational satellites, rocket bodies, and fragments generated from explosions, collisions, or faulty payload assembly.

Loading next visibility...
Identifier
26155, 1999-057AR
Orbit
SSO
Country
Flag of CNCN / PRC
Related business
Manufacturer
Unknown
Mission
Spacecraft
Bus & Motor
Unknown
Mass
Unknown
Launch date (UTC)
1999-10-14 (26 years ago)
Launch vehicle
Unknown
Launch site
Taiyaun Space Center, China (TSC)
Object type
Payload
Rocket body
Debris
Shape & HBR
Unknown shape, 0.1 m
Radar Cross Section
Small (<0.1 m²)

Expand to show TLE details & history
Last TLE update: 18 hours ago

TLE from 18 hours ago
0 CZ-4 DEB
1 26155U 99057AR  25349.95994303  .00005807  00000-0  10540-2 0  9996
2 26155  98.5644  43.6647 0124724 342.5150 141.0057 14.61671899342613
Epoch: 2025-12-15T23:02Z
TLE epoch observation values (Epoch: 2025-12-15T23:02:19.077Z)
Latitude
54.77013°
Longitude
165.48075°
Altitude
765.76 km
Speed
7.44 km/s
True Right ascension
15h 43m 38s
True Declination
54° 36' 29"
Sunlit
Object was in daylight at epoch
Visualization orbit readout
Latitude
Unknown
Longitude
Unknown
Altitude
Unknown
Speed
Unknown
Apparent Right ascension
Unknown
Apparent Declination
Unknown
Sunlit
N/A
Visualization observer readout
Local Sidereal Time
15:52:13
Azimuth
Unknown
Elevation
Unknown
Doppler factor
Unknown
Orbital elements
Apogee altitude
772.969 km
Perigee altitude
596.783 km
Semi-major axis
7,063.013 km
Eccentricity
0.01247
Inclination
98.5644°
RAAN
43.6647°
Arg. of periapsis
342.515°
True anomaly
141.89423°
Mean anomaly
141.0057°
Eccentric anomaly
141.45104°
Mean motion
3.65644 °/min
Orbital period
98.46 mins
BSTAR
0.001054
Loading maneuver chart data...
Computing Atmospheric mass density...

Documentation

Showing up to 5 results
|